EWG59MG LIEO-EDDS

Flight info

Callsign EWG59MG
Flight time N/A
Altitude 36000
Route OKIVA P980 DIKEL DCT RATAP DCT MEGER DCT ERTEV DCT DESIP DCT ABESI N851 UTAVO DCT SOPER N851 ROMIR T125 REUTL REUTL5A
Aircraft A319/M-SDE3FGHIRWY/LB1

Departure

Time 2026-04-28 17:31
Airport Olbia Costa Smeralda Airport (LIEO)

Arrival

Time N/A
Airport Stuttgart Airport (EDDS)
Time Latitude Longitude Altitude Speed Heading
2026-04-28 17:10 40.90222 9.51618 34 ft 0 kts 325°
2026-04-28 17:21 40.90205 9.51633 34 ft 4 kts 326°
2026-04-28 17:22 40.90178 9.51675 34 ft 0 kts 236°
2026-04-28 17:24 40.90175 9.51670 34 ft 1 kts 235°
2026-04-28 17:24 40.90162 9.51646 34 ft 5 kts 233°
2026-04-28 17:25 40.90133 9.51594 34 ft 9 kts 235°
2026-04-28 17:25 40.90051 9.51479 34 ft 8 kts 173°
2026-04-28 17:25 40.90001 9.51515 34 ft 9 kts 166°
2026-04-28 17:26 40.89931 9.51486 33 ft 12 kts 220°
2026-04-28 17:26 40.89873 9.51384 34 ft 15 kts 235°
2026-04-28 17:26 40.89807 9.51254 33 ft 19 kts 235°
2026-04-28 17:26 40.89727 9.51106 33 ft 20 kts 235°
2026-04-28 17:27 40.89646 9.50949 33 ft 21 kts 236°
2026-04-28 17:27 40.89562 9.50792 34 ft 21 kts 235°
2026-04-28 17:27 40.89505 9.50683 34 ft 21 kts 235°
2026-04-28 17:27 40.89427 9.50532 33 ft 16 kts 235°
2026-04-28 17:28 40.89391 9.50467 34 ft 3 kts 230°
2026-04-28 17:28 40.89380 9.50455 34 ft 0 kts 215°
2026-04-28 17:29 40.89379 9.50454 34 ft 1 kts 214°
2026-04-28 17:29 40.89355 9.50442 34 ft 8 kts 195°
2026-04-28 17:29 40.89297 9.50459 34 ft 9 kts 142°
2026-04-28 17:30 40.89270 9.50619 34 ft 7 kts 75°
2026-04-28 17:30 40.89300 9.50681 34 ft 4 kts 53°
2026-04-28 17:30 40.89364 9.50799 32 ft 44 kts 55°
2026-04-28 17:31 40.89685 9.51418 34 ft 115 kts 56°
2026-04-28 17:31 40.90824 9.53577 859 ft 145 kts 56°
2026-04-28 17:32 40.92052 9.55915 1746 ft 174 kts 57°
2026-04-28 17:32 40.92787 9.57309 2091 ft 196 kts 56°
2026-04-28 17:32 40.93616 9.58870 2452 ft 217 kts 56°
2026-04-28 17:32 40.94534 9.60601 2875 ft 239 kts 56°
2026-04-28 17:33 40.95506 9.62424 3683 ft 246 kts 56°
2026-04-28 17:33 40.96495 9.64280 4548 ft 250 kts 55°
2026-04-28 17:33 40.97803 9.65862 5193 ft 267 kts 30°
2026-04-28 17:33 40.98981 9.66425 5563 ft 278 kts
2026-04-28 17:34 41.01532 9.65853 6673 ft 285 kts 328°
2026-04-28 17:34 41.02971 9.64060 7571 ft 287 kts 303°
2026-04-28 17:34 41.04091 9.61880 8494 ft 289 kts 303°
2026-04-28 17:34 41.05307 9.59715 9391 ft 293 kts 306°
2026-04-28 17:35 41.06549 9.57600 10229 ft 297 kts 307°
2026-04-28 17:35 41.07886 9.55337 10596 ft 319 kts 306°
2026-04-28 17:35 41.09282 9.52956 11173 ft 332 kts 306°
2026-04-28 17:35 41.10700 9.50521 11961 ft 335 kts 306°
2026-04-28 17:36 41.12123 9.48061 12786 ft 338 kts 306°
2026-04-28 17:36 41.13553 9.45564 13588 ft 341 kts 306°
2026-04-28 17:36 41.14989 9.43040 14311 ft 345 kts 306°
2026-04-28 17:36 41.16444 9.40487 15019 ft 348 kts 306°
2026-04-28 17:37 41.17898 9.37939 15705 ft 352 kts 306°
2026-04-28 17:37 41.19398 9.35297 16367 ft 356 kts 306°
2026-04-28 17:37 41.20894 9.32656 17012 ft 359 kts 306°
2026-04-28 17:37 41.22402 9.29994 17634 ft 363 kts 306°
2026-04-28 17:38 41.23931 9.27296 17939 ft 365 kts 306°
2026-04-28 17:38 41.25462 9.24596 18011 ft 366 kts 306°
2026-04-28 17:38 41.26995 9.21895 18021 ft 366 kts 306°
2026-04-28 17:38 41.28524 9.19199 18024 ft 365 kts 306°
2026-04-28 17:39 41.30056 9.16501 18032 ft 365 kts 307°
2026-04-28 17:39 41.31845 9.14098 18021 ft 367 kts 320°